DW3072 Weather Reports


Display with metric or nautical units.
time (UTC)temp
F
wind
direction
speed
MPH
gust
MPH
rain 1hr
in
rain 24hr
in
rain mn
in
humidity
%
barometer
mb
20260906180544 76 147 2.0 4.0 0.00 0.00 0.00 63 1014.5
20260906175026 75 129 2.0 5.0 0.00 0.00 0.00 63 1014.6
20260906173535 75 294 1.0 5.0 0.00 0.00 0.00 62 1014.7
20260906172025 75 169 2.0 5.0 0.00 0.00 0.00 61 1015.0
20260906170558 73 110 1.0 4.0 0.00 0.00 0.00 68 1015.0
20260906165038 73 75 0.0 2.0 0.00 0.00 0.00 68 1015.3
20260906163526 73 269 3.0 5.0 0.00 0.00 0.00 68 1015.1
20260906162106 72 71 1.0 4.0 0.00 0.00 0.00 68 1015.3
20260906160534 72 140 1.0 4.0 0.00 0.00 0.00 72 1015.2
20260906155029 73 141 1.0 4.0 0.00 0.00 0.00 68 1015.3
20260906153607 73 80 1.0 4.0 0.00 0.00 0.00 70 1015.4
20260906152052 73 175 1.0 4.0 0.00 0.00 0.00 69 1015.4
20260906150600 72 126 2.0 4.0 0.00 0.00 0.00 74 1015.4
20260906145104 70 187 0.0 4.0 0.00 0.00 0.00 77 1015.3
20260906143547 69 176 0.0 3.0 0.00 0.00 0.00 81 1015.4
20260906142053 68 197 1.0 2.0 0.00 0.00 0.00 84 1015.4
20260906140559 68 147 1.0 3.0 0.00 0.00 0.00 85 1015.4
20260906135100 66 152 1.0 5.0 0.00 0.00 0.00 86 1015.5
20260906133529 66 152 1.0 3.0 0.00 0.00 0.00 87 1015.4
20260906132105 66 173 1.0 3.0 0.00 0.00 0.00 88 1015.3
20260906130533 65 169 0.0 1.0 0.00 0.00 0.00 94 1015.2
20260906125034 62 242 0.0 0.0 0.00 0.00 0.00 96 1015.4
20260906123544 60 242 0.0 0.0 0.00 0.00 0.00 96 1015.2
20260906122033 59 242 0.0 0.0 0.00 0.00 0.00 96 1014.8
20260906120544 58 242 0.0 0.0 0.00 0.00 0.00 96 1014.6
20260906115106 57 242 0.0 0.0 0.00 0.00 0.00 96 1014.6
20260906113530 57 242 0.0 0.0 0.00 0.00 0.00 96 1014.6
20260906112108 57 242 0.0 0.0 0.00 0.00 0.00 96 1014.5
20260906110555 56 242 0.0 0.0 0.00 0.00 0.00 95 1014.3
20260906105030 56 242 0.0 0.0 0.00 0.00 0.00 95 1014.0
20260906103537 56 242 0.0 0.0 0.00 0.00 0.00 94 1013.7
20260906102048 57 242 0.0 0.0 0.00 0.00 0.00 95 1013.7
20260906100603 57 242 0.0 0.0 0.00 0.00 0.00 94 1013.4
20260906095026 57 242 0.0 0.0 0.00 0.00 0.00 94 1013.1
20260906093535 57 242 0.0 0.0 0.00 0.00 0.00 94 1013.3
20260906092040 58 242 0.0 0.0 0.00 0.00 0.00 94 1013.0
20260906090547 58 242 0.0 0.0 0.00 0.00 0.00 94 1012.8
20260906085030 58 242 0.0 0.0 0.00 0.00 0.00 94 1012.7
20260906083539 59 242 0.0 0.0 0.00 0.00 0.00 94 1012.7
20260906082031 59 242 0.0 0.0 0.00 0.00 0.00 94 1012.5
20260906080540 59 242 0.0 0.0 0.00 0.00 0.00 94 1012.5
20260906075042 59 242 0.0 0.0 0.00 0.00 0.00 94 1012.7
20260906073550 59 242 0.0 0.0 0.00 0.00 0.00 94 1012.6
20260906072039 60 242 0.0 0.0 0.00 0.00 0.00 94 1012.5
20260906070529 60 242 0.0 0.0 0.00 0.00 0.00 94 1012.4
20260906065044 60 242 0.0 0.0 0.00 0.00 0.00 94 1012.5
20260906063553 60 242 0.0 0.0 0.00 0.00 0.00 94 1012.4
20260906062101 60 242 0.0 0.0 0.00 0.00 0.00 95 1012.6
20260906060532 60 242 0.0 0.0 0.00 0.00 0.00 94 1012.7
20260906055034 60 242 0.0 0.0 0.00 0.00 0.00 95 1012.7
20260906053542 60 242 0.0 0.0 0.00 0.00 0.00 94 1012.9
20260906052051 60 242 0.0 0.0 0.00 0.00 0.00 94 1012.9
20260906050557 60 242 0.0 0.0 0.00 0.00 0.00 94 1012.8
20260906045038 60 242 0.0 0.0 0.00 0.00 0.00 93 1012.9
20260906043527 60 242 0.0 1.0 0.00 0.00 0.00 93 1013.0
20260906042102 60 242 0.0 0.0 0.00 0.00 0.00 93 1013.0
20260906040548 60 242 0.0 0.0 0.00 0.00 0.00 92 1012.8
20260906035036 60 242 0.0 0.0 0.00 0.00 0.00 92 1012.7
20260906033540 61 242 0.0 1.0 0.00 0.00 0.00 92 1012.7
20260906032029 61 242 0.0 0.0 0.00 0.00 0.00 92 1012.6
20260906030608 61 242 0.0 0.0 0.00 0.00 0.00 92 1012.4
20260906025029 62 242 0.0 1.0 0.00 0.00 0.00 91 1012.4
20260906023536 62 242 0.0 2.0 0.00 0.00 0.00 91 1012.0
20260906022044 62 153 0.0 0.0 0.00 0.00 0.00 91 1012.1
20260906020553 62 153 0.0 0.0 0.00 0.00 0.00 90 1012.2
20260906015036 63 153 0.0 0.0 0.00 0.00 0.00 89 1012.2
20260906013544 63 153 0.0 0.0 0.00 0.00 0.00 89 1012.3
20260906012033 63 153 0.0 0.0 0.00 0.00 0.00 88 1012.2
20260906010545 64 153 0.0 0.0 0.00 0.00 0.00 87 1011.8
20260906005049 64 153 0.0 0.0 0.00 0.00 0.00 86 1011.8
20260906003557 65 153 0.0 0.0 0.00 0.00 0.00 86 1011.5
20260906002052 66 153 0.0 0.0 0.00 0.00 0.00 85 1011.4
20260906000603 67 153 0.0 0.0 0.00 0.00 0.00 83 1011.2
20260905235042 67 153 0.0 0.0 0.00 0.00 0.00 82 1011.1
20260905233550 68 153 0.0 0.0 0.00 0.00 0.00 81 1011.0
20260905232057 69 153 0.0 0.0 0.00 0.00 0.00 79 1010.8
20260905230547 71 153 0.0 0.0 0.00 0.00 0.00 76 1010.9
20260905225049 72 153 0.0 0.0 0.00 0.00 0.00 75 1010.8
20260905223538 74 153 0.0 0.0 0.00 0.00 0.00 71 1010.8
20260905222029 75 153 0.0 4.0 0.00 0.00 0.00 65 1010.7
20260905220539 75 113 2.0 4.0 0.00 0.00 0.00 62 1010.5
20260905215039 75 151 1.0 3.0 0.00 0.00 0.00 65 1010.2
20260905213528 76 138 0.0 2.0 0.00 0.00 0.00 70 1010.2
20260905212033 76 174 2.0 3.0 0.00 0.00 0.00 61 1010.1
20260905210544 77 175 1.0 4.0 0.00 0.00 0.00 60 1010.0
20260905205103 77 103 1.0 3.0 0.00 0.00 0.00 61 1010.1
20260905203530 77 269 0.0 8.0 0.00 0.00 0.00 59 1009.9
20260905202041 77 32 0.0 2.0 0.00 0.00 0.00 61 1010.0
20260905200551 77 31 1.0 3.0 0.00 0.00 0.00 60 1010.0
20260905195029 77 273 0.0 3.0 0.00 0.00 0.00 59 1010.1
20260905193541 78 139 0.0 4.0 0.00 0.00 0.00 61 1010.1
20260905192029 78 164 2.0 4.0 0.00 0.00 0.00 57 1010.1
20260905190538 77 169 0.0 3.0 0.00 0.00 0.00 60 1010.1
20260905185040 78 129 1.0 6.0 0.00 0.00 0.00 59 1010.3
20260905183530 77 117 2.0 4.0 0.00 0.00 0.00 58 1010.5
20260905182036 78 178 2.0 9.0 0.00 0.00 0.00 58 1010.6